Location: Hiram
(41.3130°N, 81.1440°W)
Time: 07:55:41
(UTC-04:00)

Amateur Radio Satellites - All Passes

Search period start: 25 October 2014 07:25
Search period end: 26 October 2014 07:25
Location: Hiram, 41.3130°N, 81.1440°W

Satellite Date Start Highest point End Downlink Frequencies (MHz)
Time Altitude Azimuth
SO-67 25 Oct 07:27:05 07:27:47 11° 91° (E) 07:28:29 435.3500 MHz FM
STRAND 1 25 Oct 07:52:47 07:57:45 51° 260° (W) 08:02:47 ?
Hamsat 25 Oct 07:58:23 08:02:09 33° 289° (WNW) 08:05:56 145.90 MHz
JAS-2 25 Oct 08:41:09 08:47:10 26° 300° (WNW) 08:53:15 435.800 - 435.900 CW/SSB, 435.910 FM
RS-15 25 Oct 08:50:37 09:01:31 61° 246° (WSW) 09:12:54 29.354 - 29.394 USB, Beacon 29.352 USB
Saudisat 1A 25 Oct 08:51:32 08:55:47 48° 308° (NW) 09:00:03 436.775 MHz
SO-67 25 Oct 08:57:42 09:00:59 41° 286° (WNW) 09:04:14 435.3500 MHz FM
MaSat-1 25 Oct 09:03:17 09:04:43 14° 53° (NE) 09:06:06 437.345 MHz
PANSAT 25 Oct 09:26:14 09:27:43 12° 178° (S) 09:29:12 not established
HO-68 25 Oct 09:29:50 09:35:52 28° 95° (E) 09:41:51 435.675 MHz FM
Oscar 11 25 Oct 10:15:18 10:18:19 19° 93° (E) 10:21:20 145.825 FM, Beacon 2401.500 USB
MaSat-1 25 Oct 10:38:37 10:40:13 15° 254° (WSW) 10:41:45 437.345 MHz
ZACube-1 25 Oct 11:05:26 11:09:03 27° 95° (E) 11:12:36 437.345 MHz
KITSAT 1 25 Oct 11:05:31 11:09:36 15° 99° (E) 11:13:40 435.175 FM
RS-15 25 Oct 11:08:59 11:11:29 11° 266° (W) 11:14:00 29.354 - 29.394 USB, Beacon 29.352 USB
UKube-1 25 Oct 11:09:13 11:13:36 78° 103° (ESE) 11:17:57 145.840 MHz, 145.915 MHz
HO-68 25 Oct 11:16:54 11:23:53 56° 292° (WNW) 11:30:50 435.675 MHz FM
FUNcube-1 25 Oct 11:49:36 11:53:53 87° 103° (ESE) 11:58:03 145.950 - 145.970 MHz USB
Oscar 11 25 Oct 11:50:39 11:54:38 38° 289° (WNW) 11:58:36 145.825 FM, Beacon 2401.500 USB
ISS 25 Oct 12:22:07 12:24:32 19° 132° (SE) 12:26:58 145.800 FM
Sapphire 25 Oct 12:30:31 12:34:55 24° 47° (NE) 12:39:17 437.095 MHz 1200 baud AX-25 AFSK
Oscar 19 25 Oct 12:36:11 12:38:24 13° 59° (ENE) 12:40:36 437.125 CW, 437.150 USB
ZACube-1 25 Oct 12:41:53 12:45:22 25° 292° (WNW) 12:48:47 437.345 MHz
JAS-1B 25 Oct 12:42:41 12:45:43 15° 58° (ENE) 12:48:44 435.800 - 435.900 CW/SSB
Oscar 10/S400 25 Oct 12:42:44 13:00:33 26° 151° (SSE) 13:15:34 145.825 - 145.975 CW/USB, Beacon 145.810 USB
UKube-1 25 Oct 12:48:04 12:49:08 11° 300° (WNW) 12:50:13 145.840 MHz, 145.915 MHz
PCSat 25 Oct 12:52:40 12:57:41 37° 52° (NE) 13:02:40 145.825 MHz
SO-50 25 Oct 12:54:32 12:58:31 32° 114° (ESE) 13:02:37 436.795 FM
KITSAT 1 25 Oct 12:55:37 13:03:41 79° 118° (ESE) 13:11:47 435.175 FM
HO-68 25 Oct 13:08:13 13:10:03 11° 312° (NW) 13:11:53 435.675 MHz FM
AO-Echo 25 Oct 13:12:05 13:14:31 14° 60° (ENE) 13:17:00 ?
Oscar 16 25 Oct 13:19:15 13:23:48 32° 67° (ENE) 13:28:20 437.025 USB, Beacon 2401.1428
Uribyol 2 25 Oct 13:40:35 13:44:35 23° 64° (ENE) 13:48:36 436.500 FM
ITAMSAT 1 25 Oct 13:46:38 13:50:45 24° 64° (ENE) 13:54:53 435.822 SSB
ISS 25 Oct 13:57:43 14:00:58 51° 329° (NNW) 14:04:15 145.800 FM
Gurwin Techsat 1B 25 Oct 14:10:22 14:14:18 22° 63° (ENE) 14:18:15 435.225 FM
Oscar 19 25 Oct 14:11:51 14:17:00 85° 256° (WSW) 14:22:11 437.125 CW, 437.150 USB
Sapphire 25 Oct 14:13:22 14:18:41 56° 246° (WSW) 14:23:57 437.095 MHz 1200 baud AX-25 AFSK
UOSAT-12 25 Oct 14:15:37 14:19:02 21° 111° (ESE) 14:22:30 437.025 FM, 437.400 FM
TMSAT-1 25 Oct 14:21:22 14:25:09 20° 63° (ENE) 14:28:56 436.925 FM
JAS-1B 25 Oct 14:29:47 14:35:47 76° 256° (WSW) 14:41:28 435.800 - 435.900 CW/SSB
AO-7 25 Oct 14:30:10 14:34:25 15° 46° (NE) 14:38:40 29.400 - 29.500 MHz
AO-27 25 Oct 14:31:11 14:36:18 62° 72° (ENE) 14:41:29 436.795 MHz FM
SO-50 25 Oct 14:35:03 14:39:03 30° 313° (NW) 14:43:10 436.795 FM
PCSat 25 Oct 14:36:13 14:41:01 33° 250° (WSW) 14:45:47 145.825 MHz
AO-Echo 25 Oct 14:47:42 14:52:35 76° 258° (WSW) 14:57:40 ?
KITSAT 1 25 Oct 14:53:09 14:59:56 29° 320° (NW) 15:06:45 435.175 FM
Oscar 16 25 Oct 14:58:34 15:03:06 31° 264° (W) 15:07:39 437.025 USB, Beacon 2401.1428
Uribyol 2 25 Oct 15:18:44 15:23:44 46° 261° (W) 15:28:47 436.500 FM
ITAMSAT 1 25 Oct 15:25:02 15:29:58 43° 261° (W) 15:34:57 435.822 SSB
ISS 25 Oct 15:36:01 15:38:15 17° 348° (NNW) 15:40:29 145.800 FM
Saudisat 1A 25 Oct 15:39:18 15:42:27 19° 42° (NE) 15:45:35 436.775 MHz
Gurwin Techsat 1B 25 Oct 15:48:45 15:53:53 51° 260° (W) 15:59:04 435.225 FM
UOSAT-12 25 Oct 15:54:22 15:58:50 47° 308° (NW) 16:03:25 437.025 FM, 437.400 FM
TMSAT-1 25 Oct 15:59:28 16:04:38 55° 260° (W) 16:09:51 436.925 FM
AO-27 25 Oct 16:13:05 16:16:14 16° 269° (W) 16:19:25 436.795 MHz FM
AO-7 25 Oct 16:17:30 16:25:38 65° 67° (ENE) 16:33:47 29.400 - 29.500 MHz
Uosat F 25 Oct 16:33:19 16:38:08 49° 71° (ENE) 16:42:59 435.120 FM
KITSAT 1 25 Oct 16:56:00 16:58:41 12° 348° (NNW) 17:01:21 435.175 FM
JAS-2 25 Oct 17:08:02 17:13:16 31° 63° (ENE) 17:19:05 435.800 - 435.900 CW/SSB, 435.910 FM
ISS 25 Oct 17:13:53 17:15:57 15° 9° (N) 17:18:01 145.800 FM
AO-40 25 Oct 17:14:19 23:36:07 41° 184° (S) 05:22:49 Beacon 2401.320
Hamsat 25 Oct 17:17:15 17:19:43 15° 65° (ENE) 17:22:11 145.90 MHz
Saudisat 1A 25 Oct 17:18:02 17:22:23 60° 241° (WSW) 17:26:43 436.775 MHz
AO-7 25 Oct 18:12:07 18:18:54 28° 265° (W) 18:25:45 29.400 - 29.500 MHz
Uosat F 25 Oct 18:13:36 18:17:10 19° 267° (W) 18:20:45 435.120 FM
OPAL 25 Oct 18:17:41 18:22:19 38° 100° (E) 18:26:54 ?
ISS 25 Oct 18:50:10 18:53:20 38° 28° (NNE) 18:56:29 145.800 FM
Hamsat 25 Oct 18:51:14 18:55:17 46° 261° (W) 18:59:20 145.90 MHz
JAS-2 25 Oct 18:52:27 18:58:04 44° 264° (W) 19:04:26 435.800 - 435.900 CW/SSB, 435.910 FM
KITSAT 1 25 Oct 18:54:30 18:58:30 14° 20° (NNE) 19:02:28 435.175 FM
SO-67 25 Oct 19:29:51 19:33:12 56° 76° (ENE) 19:36:35 435.3500 MHz FM
OPAL 25 Oct 19:56:59 20:01:00 25° 297° (WNW) 20:04:59 ?
HO-68 25 Oct 19:59:32 20:04:50 23° 57° (ENE) 20:10:08 435.675 MHz FM
STRAND 1 25 Oct 20:03:13 20:08:17 54° 100° (E) 20:13:18 ?
ISS 25 Oct 20:27:03 20:29:56 27° 225° (SW) 20:32:47 145.800 FM
KITSAT 1 25 Oct 20:49:02 20:56:33 40° 47° (NE) 21:04:02 435.175 FM
RS-15 25 Oct 21:05:44 21:13:20 22° 101° (E) 21:20:50 29.354 - 29.394 USB, Beacon 29.352 USB
Oscar 11 25 Oct 21:11:05 21:13:41 16° 64° (ENE) 21:16:18 145.825 FM, Beacon 2401.500 USB
SO-50 25 Oct 21:25:35 21:30:00 34° 49° (NE) 21:34:26 436.795 FM
STRAND 1 25 Oct 21:43:26 21:47:02 20° 297° (WNW) 21:50:38 ?
HO-68 25 Oct 21:44:40 21:51:49 75° 255° (WSW) 21:59:01 435.675 MHz FM
ZACube-1 25 Oct 22:01:51 22:05:33 25° 68° (ENE) 22:09:14 437.345 MHz
UKube-1 25 Oct 22:04:26 22:08:44 67° 74° (ENE) 22:13:05 145.840 MHz, 145.915 MHz
UOSAT-12 25 Oct 22:44:22 22:48:04 22° 43° (NE) 22:51:42 437.025 FM, 437.400 FM
KITSAT 1 25 Oct 22:44:25 22:52:09 52° 248° (WSW) 22:59:51 435.175 FM
Oscar 11 25 Oct 22:45:18 22:49:28 48° 261° (W) 22:53:41 145.825 FM, Beacon 2401.500 USB
FUNcube-1 25 Oct 22:45:20 22:49:54 70° 75° (ENE) 22:54:24 145.950 - 145.970 MHz USB
SO-50 25 Oct 23:06:13 23:10:31 32° 246° (WSW) 23:14:51 436.795 FM
RS-15 25 Oct 23:13:05 23:24:07 90° 301° (WNW) 23:35:06 29.354 - 29.394 USB, Beacon 29.352 USB
ZACube-1 25 Oct 23:37:40 23:41:48 33° 263° (W) 23:45:53 437.345 MHz
HO-68 25 Oct 23:38:19 23:40:38 12° 273° (W) 23:42:57 435.675 MHz FM
UKube-1 25 Oct 23:44:19 23:45:22 11° 270° (W) 23:46:25 145.840 MHz, 145.915 MHz
MaSat-1 26 Oct 00:13:21 00:17:28 82° 115° (ESE) 00:21:13 437.345 MHz
UOSAT-12 26 Oct 00:23:55 00:28:31 54° 242° (WSW) 00:33:02 437.025 FM, 437.400 FM
FUNcube-1 26 Oct 00:25:16 00:26:41 11° 270° (W) 00:28:06 145.950 - 145.970 MHz USB
RS-15 26 Oct 01:28:38 01:38:03 32° 328° (NNW) 01:47:34 29.354 - 29.394 USB, Beacon 29.352 USB
Oscar 16 26 Oct 01:33:52 01:34:33 10° 88° (E) 01:35:14 437.025 USB, Beacon 2401.1428
Oscar 10/S400 26 Oct 01:39:27 02:39:12 21° 241° (WSW) 05:03:30 145.825 - 145.975 CW/USB, Beacon 145.810 USB
JAS-1B 26 Oct 02:11:58 02:17:58 31° 97° (E) 02:24:52 435.800 - 435.900 CW/SSB
Oscar 19 26 Oct 02:23:46 02:28:23 33° 97° (E) 02:32:58 437.125 CW, 437.150 USB
AO-27 26 Oct 02:45:00 02:49:01 22° 94° (E) 02:53:00 436.795 MHz FM
AO-Echo 26 Oct 02:54:55 02:59:50 37° 97° (E) 03:04:42 ?
Oscar 16 26 Oct 03:09:24 03:14:34 88° 284° (WNW) 03:19:41 437.025 USB, Beacon 2401.1428
Sapphire 26 Oct 03:13:41 03:17:21 19° 105° (ESE) 03:21:01 437.095 MHz 1200 baud AX-25 AFSK
Uribyol 2 26 Oct 03:31:13 03:36:24 63° 102° (ESE) 03:41:31 436.500 FM
PCSat 26 Oct 03:34:47 03:39:31 32° 109° (ESE) 03:44:15 145.825 MHz
ITAMSAT 1 26 Oct 03:37:33 03:42:46 68° 102° (ESE) 03:47:57 435.822 SSB
RS-15 26 Oct 03:47:41 03:55:19 20° 3° (N) 04:03:04 29.354 - 29.394 USB, Beacon 29.352 USB
JAS-1B 26 Oct 04:02:14 04:08:40 52° 290° (WNW) 04:16:18 435.800 - 435.900 CW/SSB
Oscar 19 26 Oct 04:03:14 04:07:37 29° 293° (WNW) 04:11:59 437.125 CW, 437.150 USB
Gurwin Techsat 1B 26 Oct 04:04:43 04:10:02 65° 102° (ESE) 04:15:17 435.225 FM
TMSAT-1 26 Oct 04:15:09 04:20:24 60° 101° (E) 04:25:37 436.925 FM
AO-7 26 Oct 04:20:27 04:26:08 20° 91° (E) 04:31:47 29.400 - 29.500 MHz
AO-27 26 Oct 04:23:45 04:28:44 46° 290° (WNW) 04:33:40 436.795 MHz FM
AO-Echo 26 Oct 04:33:54 04:38:26 29° 293° (WNW) 04:42:57 ?
Uosat F 26 Oct 04:42:27 04:45:16 15° 91° (E) 04:48:03 435.120 FM
Oscar 16 26 Oct 04:51:24 04:53:07 12° 302° (WNW) 04:54:49 437.025 USB, Beacon 2401.1428
Sapphire 26 Oct 04:54:55 05:00:15 61° 302° (WNW) 05:05:38 437.095 MHz 1200 baud AX-25 AFSK
Uribyol 2 26 Oct 05:12:00 05:15:20 18° 299° (WNW) 05:18:40 436.500 FM
PCSat 26 Oct 05:17:48 05:22:48 38° 307° (NW) 05:27:52 145.825 MHz
ITAMSAT 1 26 Oct 05:18:31 05:21:41 17° 299° (WNW) 05:24:51 435.822 SSB
OPAL 26 Oct 05:32:24 05:37:31 72° 72° (ENE) 05:42:36 ?
STRAND 1 26 Oct 05:45:01 05:45:54 10° 57° (ENE) 05:46:47 ?
Gurwin Techsat 1B 26 Oct 05:46:03 05:49:26 18° 299° (WNW) 05:52:50 435.225 FM
TMSAT-1 26 Oct 05:56:15 05:59:50 19° 298° (WNW) 06:03:23 436.925 FM
JAS-2 26 Oct 06:00:46 06:07:42 33° 93° (E) 06:14:31 435.800 - 435.900 CW/SSB, 435.910 FM
RS-15 26 Oct 06:02:07 06:12:11 37° 37° (NE) 06:22:34 29.354 - 29.394 USB, Beacon 29.352 USB
AO-7 26 Oct 06:11:27 06:19:48 85° 289° (WNW) 06:28:09 29.400 - 29.500 MHz
Uosat F 26 Oct 06:19:28 06:24:28 64° 287° (WNW) 06:29:26 435.120 FM
Hamsat 26 Oct 06:36:53 06:40:33 28° 96° (E) 06:44:13 145.90 MHz
Sapphire 26 Oct 06:42:44 06:44:50 12° 323° (NW) 06:46:57 437.095 MHz 1200 baud AX-25 AFSK
OPAL 26 Oct 07:14:24 07:16:52 13° 267° (W) 07:19:20 ?
